Torna al catalogo

BLOCK DM-SL R/B

AttivoGEO
NORAD 55507·ROCKET BODY·🇷🇺 Russia

Lanciato Feb 5, 2023 da Baikonur Cosmodrome

Loading…

TLE

AggiornatoSource: Space-Track

Epoca: Sep 14, 2026, 04:04 UTC

1 55507U 23016B   26257.16974591 -.00000072  00000-0  00000-0 0  9998
2 55507   2.8598  78.7743 0090756 249.6416 109.8498  1.03219447 13599

Traccia BLOCK DM-SL R/B in tempo reale con AllMySat

Download on the App Store